| time (UTC) | temp C | wind direction | speed KPH | gust KPH | rain 1hr cm | rain 24hr cm | rain mn cm | humidity % | barometer mb |
| 20260507014708 | 19 | 232 | 12.9 | 17.7 | 0.00 | 0.00 | 0.00 | 28 | |
| 20260507014210 | 20 | 219 | 19.3 | 22.5 | 0.00 | 0.00 | 0.00 | 26 | |
| 20260507013711 | 20 | 193 | 20.9 | 12.9 | 0.00 | 0.00 | 0.00 | 25 | |
| 20260507013214 | 20 | 191 | 12.9 | 12.9 | 0.00 | 0.00 | 0.00 | 24 | |
| 20260507012752 | 20 | 219 | 17.7 | 17.7 | 0.00 | 0.00 | 0.00 | 23 | |
| 20260507012716 | 20 | 219 | 17.7 | 17.7 | 0.00 | 0.00 | 0.00 | 23 | |
| 20260507012219 | 21 | 235 | 17.7 | 24.1 | 0.00 | 0.00 | 0.00 | 22 | |
| 20260507011718 | 21 | 228 | 16.1 | 20.9 | 0.00 | 0.00 | 0.00 | 21 | |
| 20260507011220 | 21 | 221 | 20.9 | 19.3 | 0.00 | 0.00 | 0.00 | 20 | |
| 20260507010722 | 21 | 238 | 17.7 | 12.9 | 0.00 | 0.00 | 0.00 | 18 | |
| 20260507010224 | 22 | 203 | 14.5 | 12.9 | 0.00 | 0.00 | 0.00 | 17 | |
| 20260507005727 | 22 | 215 | 19.3 | 19.3 | 0.00 | 0.00 | 0.00 | 16 | |
| 20260507005229 | 22 | 210 | 19.3 | 12.9 | 0.00 | 0.00 | 0.00 | 15 | |
| 20260507004728 | 23 | 225 | 17.7 | 12.9 | 0.00 | 0.00 | 0.00 | 15 | |
| 20260507004231 | 23 | 166 | 16.1 | 14.5 | 0.00 | 0.00 | 0.00 | 14 | |
| 20260507003733 | 23 | 195 | 12.9 | 14.5 | 0.00 | 0.00 | 0.00 | 12 | |
| 20260507003235 | 24 | 249 | 11.3 | 9.7 | 0.00 | 0.00 | 0.00 | 12 | |
| 20260507002737 | 24 | 270 | 14.5 | 12.9 | 0.00 | 0.00 | 0.00 | 12 | |
| 20260507002240 | 25 | 200 | 11.3 | 6.4 | 0.00 | 0.00 | 0.00 | 11 | |
| 20260507001739 | 25 | 235 | 11.3 | 17.7 | 0.00 | 0.00 | 0.00 | 9 | |
| 20260507001241 | 25 | 262 | 1.6 | 6.4 | 0.00 | 0.00 | 0.00 | 6 | |
| 20260507000246 | 25 | 300 | 12.9 | 9.7 | 0.00 | 0.00 | 0.00 | 5 | |
| 20260506235749 | 25 | 345 | 4.8 | 4.8 | 0.00 | 0.00 | 0.00 | 5 | |
| 20260506235251 | 25 | 37 | 11.3 | 11.3 | 0.00 | 0.00 | 0.00 | 5 | |
| 20260506234750 | 25 | 3 | 12.9 | 14.5 | 0.00 | 0.00 | 0.00 | 5 | |
| 20260506234252 | 25 | 15 | 19.3 | 14.5 | 0.00 | 0.00 | 0.00 | 5 | |
| 20260506233257 | 24 | 21 | 9.7 | 9.7 | 0.00 | 0.00 | 0.00 | 5 | |
| 20260506232759 | 24 | 3 | 17.7 | 24.1 | 0.00 | 0.00 | 0.00 | 5 | |
| 20260506232301 | 24 | 11 | 16.1 | 19.3 | 0.00 | 0.00 | 0.00 | 6 | |
| 20260506231800 | 24 | 18 | 20.9 | 29.0 | 0.00 | 0.00 | 0.00 | 5 | |
| 20260506231303 | 25 | 25 | 19.3 | 20.9 | 0.00 | 0.00 | 0.00 | 6 | |
| 20260506230805 | 25 | 8 | 17.7 | 14.5 | 0.00 | 0.00 | 0.00 | 6 | |
| 20260506230307 | 25 | 338 | 17.7 | 16.1 | 0.00 | 0.00 | 0.00 | 6 | |
| 20260506224811 | 24 | 23 | 16.1 | 11.3 | 0.00 | 0.00 | 0.00 | 6 | |
| 20260506224313 | 24 | 41 | 24.1 | 30.6 | 0.00 | 0.00 | 0.00 | 6 | |
| 20260506223816 | 24 | 46 | 20.9 | 16.1 | 0.00 | 0.00 | 0.00 | 6 | |
| 20260506223318 | 24 | 39 | 19.3 | 19.3 | 0.00 | 0.00 | 0.00 | 6 | |
| 20260506222820 | 24 | 11 | 17.7 | 20.9 | 0.00 | 0.00 | 0.00 | 6 | |
| 20260506222323 | 24 | 1 | 16.1 | 9.7 | 0.00 | 0.00 | 0.00 | 6 | |
| 20260506221822 | 24 | 347 | 11.3 | 11.3 | 0.00 | 0.00 | 0.00 | 6 | |
| 20260506221324 | 23 | 52 | 8.0 | 4.8 | 0.00 | 0.00 | 0.00 | 7 | |
| 20260506220827 | 24 | 52 | 0.0 | 0.0 | 0.00 | 0.33 | 0.00 | 6 | |
| 20260506220329 | 23 | 28 | 16.1 | 19.3 | 0.00 | 0.00 | 0.00 | 7 | |
| 20260506215831 | 23 | 28 | 17.7 | 22.5 | 0.00 | 0.00 | 0.00 | 7 | |
| 20260506215334 | 23 | 48 | 19.3 | 16.1 | 0.00 | 0.00 | 0.00 | 7 | |
| 20260506214833 | 23 | 15 | 11.3 | 16.1 | 0.00 | 0.00 | 0.00 | 8 | |
| 20260506214336 | 23 | 332 | 16.1 | 17.7 | 0.00 | 0.00 | 0.00 | 8 | |
| 20260506213837 | 23 | 356 | 14.5 | 11.3 | 0.00 | 0.00 | 0.00 | 8 | |
| 20260506213339 | 23 | 49 | 14.5 | 19.3 | 0.00 | 0.00 | 0.00 | 8 | |
| 20260506212842 | 23 | 62 | 9.7 | 11.3 | 0.00 | 0.00 | 0.00 | 8 | |
| 20260506211843 | 23 | 41 | 16.1 | 14.5 | 0.00 | 0.00 | 0.00 | 9 | |
| 20260506211346 | 23 | 73 | 12.9 | 16.1 | 0.00 | 0.00 | 0.00 | 9 | |
| 20260506210848 | 23 | 60 | 14.5 | 16.1 | 0.00 | 0.00 | 0.00 | 9 | |
| 20260506205854 | 23 | 42 | 9.7 | 9.7 | 0.00 | 0.00 | 0.00 | 9 | |
| 20260506205356 | 23 | 45 | 19.3 | 9.7 | 0.00 | 0.00 | 0.00 | 9 | |
| 20260506204854 | 23 | 45 | 19.3 | 19.3 | 0.00 | 0.00 | 0.00 | 9 | |
| 20260506204356 | 23 | 18 | 16.1 | 20.9 | 0.00 | 0.00 | 0.00 | 9 | |
| 20260506203859 | 23 | 86 | 8.0 | 4.8 | 0.00 | 0.00 | 0.00 | 9 | |
| 20260506203401 | 23 | 69 | 11.3 | 16.1 | 0.00 | 0.00 | 0.00 | 9 | |
| 20260506202903 | 22 | 55 | 19.3 | 9.7 | 0.00 | 0.00 | 0.00 | 9 | |
| 20260506202407 | 22 | 62 | 17.7 | 16.1 | 0.00 | 0.00 | 0.00 | 9 | |
| 20260506201905 | 22 | 32 | 17.7 | 19.3 | 0.00 | 0.00 | 0.00 | 8 | |
| 20260506201407 | 22 | 4 | 14.5 | 4.8 | 0.00 | 0.00 | 0.00 | 9 | |
| 20260506200412 | 23 | 11 | 6.4 | 9.7 | 0.00 | 0.00 | 0.00 | 9 | |
| 20260506195914 | 22 | 42 | 4.8 | 11.3 | 0.00 | 0.00 | 0.00 | 9 | |
| 20260506195418 | 22 | 7 | 8.0 | 11.3 | 0.00 | 0.00 | 0.00 | 9 | |
| 20260506194916 | 22 | 359 | 12.9 | 9.7 | 0.00 | 0.00 | 0.00 | 10 | |
| 20260506194418 | 22 | 359 | 8.0 | 14.5 | 0.00 | 0.00 | 0.00 | 11 | |
| 20260506193921 | 21 | 20 | 14.5 | 12.9 | 0.00 | 0.00 | 0.00 | 12 | |
| 20260506193423 | 21 | 27 | 16.1 | 16.1 | 0.00 | 0.00 | 0.00 | 12 | |
| 20260506192926 | 21 | 359 | 17.7 | 19.3 | 0.00 | 0.00 | 0.00 | 12 | |
| 20260506192428 | 21 | 349 | 20.9 | 17.7 | 0.00 | 0.00 | 0.00 | 12 | |
| 20260506191927 | 21 | 13 | 17.7 | 16.1 | 0.00 | 0.00 | 0.00 | 12 | |
| 20260506191429 | 21 | 347 | 16.1 | 19.3 | 0.00 | 0.00 | 0.00 | 13 | |
| 20260506190931 | 21 | 7 | 19.3 | 20.9 | 0.00 | 0.00 | 0.00 | 13 | |
| 20260506190434 | 21 | 309 | 14.5 | 19.3 | 0.00 | 0.00 | 0.00 | 13 | |
| 20260506185936 | 21 | 3 | 9.7 | 9.7 | 0.00 | 0.00 | 0.00 | 13 | |
| 20260506185439 | 20 | 325 | 14.5 | 8.0 | 0.00 | 0.00 | 0.00 | 13 | |
| 20260506184440 | 20 | 345 | 16.1 | 16.1 | 0.00 | 0.00 | 0.00 | 15 | |
| 20260506183943 | 20 | 332 | 12.9 | 8.0 | 0.00 | 0.00 | 0.00 | 15 | |
| 20260506183445 | 20 | 14 | 14.5 | 20.9 | 0.00 | 0.00 | 0.00 | 15 | |
| 20260506182947 | 20 | 352 | 17.7 | 11.3 | 0.00 | 0.00 | 0.00 | 15 | |
| 20260506182451 | 20 | 4 | 12.9 | 11.3 | 0.00 | 0.00 | 0.00 | 15 | |
| 20260506181949 | 20 | 10 | 14.5 | 12.9 | 0.00 | 0.00 | 0.00 | 15 | |
| 20260506181451 | 20 | 356 | 12.9 | 9.7 | 0.00 | 0.00 | 0.00 | 16 | |
| 20260506180954 | 20 | 21 | 14.5 | 12.9 | 0.00 | 0.00 | 0.00 | 16 | |
| 20260506180456 | 20 | 27 | 8.0 | 14.5 | 0.00 | 0.00 | 0.00 | 17 | |
| 20260506175959 | 19 | 322 | 16.1 | 19.3 | 0.00 | 0.00 | 0.00 | 17 | |
| 20260506175501 | 19 | 311 | 14.5 | 8.0 | 0.00 | 0.00 | 0.00 | 18 | |
| 20260506175000 | 19 | 304 | 17.7 | 8.0 | 0.00 | 0.00 | 0.00 | 19 | |
| 20260506174004 | 18 | 339 | 14.5 | 17.7 | 0.00 | 0.00 | 0.00 | 20 | |
| 20260506173507 | 18 | 343 | 14.5 | 8.0 | 0.00 | 0.00 | 0.00 | 20 | |
| 20260506173009 | 18 | 34 | 17.7 | 17.7 | 0.00 | 0.00 | 0.00 | 21 | |
| 20260506172512 | 18 | 338 | 16.1 | 14.5 | 0.00 | 0.00 | 0.00 | 22 | |
| 20260506172011 | 18 | 325 | 12.9 | 17.7 | 0.00 | 0.00 | 0.00 | 23 | |
| 20260506171513 | 18 | 336 | 14.5 | 11.3 | 0.00 | 0.00 | 0.00 | 24 | |
| 20260506171015 | 18 | 6 | 16.1 | 9.7 | 0.00 | 0.00 | 0.00 | 23 | |
| 20260506170518 | 17 | 330 | 6.4 | 4.8 | 0.00 | 0.00 | 0.00 | 25 | |
| 20260506170020 | 17 | 316 | 8.0 | 8.0 | 0.00 | 0.00 | 0.00 | 27 | |
| 20260506165523 | 17 | 30 | 8.0 | 4.8 | 0.00 | 0.00 | 0.00 | 27 | |
| 20260506165022 | 16 | 333 | 9.7 | 3.2 | 0.00 | 0.00 | 0.00 | 29 | |
| 20260506164027 | 16 | 338 | 9.7 | 6.4 | 0.00 | 0.00 | 0.00 | 31 | |
| 20260506163529 | 16 | 8 | 0.0 | 0.0 | 0.00 | 0.00 | 0.00 | 31 | |
| 20260506163031 | 15 | 329 | 0.0 | 0.0 | 0.00 | 0.00 | 0.00 | 32 | |
| 20260506162535 | 15 | 21 | 11.3 | 9.7 | 0.00 | 0.00 | 0.00 | 33 | |
| 20260506162033 | 15 | 359 | 8.0 | 4.8 | 0.00 | 0.00 | 0.00 | 34 | |
| 20260506161037 | 15 | 323 | 0.0 | 0.0 | 0.00 | 0.00 | 0.00 | 36 | |
| 20260506160540 | 14 | 347 | 1.6 | 4.8 | 0.00 | 0.00 | 0.00 | 37 | |
| 20260506160042 | 14 | 302 | 0.0 | 0.0 | 0.00 | 0.00 | 0.00 | 38 | |
| 20260506155545 | 14 | 333 | 0.0 | 0.0 | 0.00 | 0.00 | 0.00 | 38 | |
| 20260506155045 | 13 | 335 | 4.8 | 11.3 | 0.00 | 0.00 | 0.00 | 39 | |
| 20260506154546 | 13 | 336 | 11.3 | 0.0 | 0.00 | 0.00 | 0.00 | 39 | |
| 20260506154048 | 13 | 122 | 0.0 | 0.0 | 0.00 | 0.00 | 0.00 | 40 | |
| 20260506153551 | 13 | 122 | 0.0 | 0.0 | 0.00 | 0.00 | 0.00 | 41 | |
| 20260506153053 | 12 | 122 | 0.0 | 0.0 | 0.00 | 0.00 | 0.00 | 41 | |
| 20260506152556 | 12 | 122 | 0.0 | 0.0 | 0.00 | 0.00 | 0.00 | 42 | |
| 20260506152055 | 12 | 122 | 0.0 | 0.0 | 0.00 | 0.00 | 0.00 | 43 | |
| 20260506151557 | 12 | 122 | 0.0 | 0.0 | 0.00 | 0.00 | 0.00 | 44 | |
| 20260506151059 | 12 | 122 | 0.0 | 0.0 | 0.00 | 0.00 | 0.00 | 45 | |
| 20260506150104 | 11 | 122 | 0.0 | 0.0 | 0.00 | 0.00 | 0.00 | 47 | |
| 20260506145606 | 11 | 122 | 0.0 | 0.0 | 0.00 | 0.00 | 0.00 | 48 | |
| 20260506145105 | 11 | 122 | 0.0 | 0.0 | 0.00 | 0.00 | 0.00 | 49 | |
| 20260506144608 | 11 | 122 | 0.0 | 0.0 | 0.00 | 0.00 | 0.00 | 50 | |
| 20260506144110 | 11 | 122 | 0.0 | 0.0 | 0.00 | 0.00 | 0.00 | 52 | |
| 20260506143612 | 10 | 122 | 0.0 | 0.0 | 0.00 | 0.00 | 0.00 | 54 | |
| 20260506143152 | 10 | 122 | 0.0 | 0.0 | 0.00 | 0.00 | 0.00 | 56 | |
| 20260506143115 | 10 | 122 | 0.0 | 0.0 | 0.00 | 0.00 | 0.00 | 56 | |
| 20260506142618 | 10 | 122 | 0.0 | 0.0 | 0.00 | 0.00 | 0.00 | 59 | |
| 20260506142116 | 10 | 122 | 0.0 | 0.0 | 0.00 | 0.00 | 0.00 | 61 | |
| 20260506141657 | 9 | 122 | 0.0 | 0.0 | 0.00 | 0.00 | 0.00 | 64 | |
| 20260506141619 | 9 | 122 | 0.0 | 0.0 | 0.00 | 0.00 | 0.00 | 64 | |
| 20260506141121 | 8 | 122 | 0.0 | 0.0 | 0.00 | 0.00 | 0.00 | 66 | |
| 20260506140623 | 8 | 122 | 0.0 | 0.0 | 0.00 | 0.00 | 0.00 | 68 | |
| 20260506140126 | 8 | 122 | 0.0 | 0.0 | 0.00 | 0.00 | 0.00 | 70 | |
| 20260506135628 | 8 | 122 | 0.0 | 0.0 | 0.00 | 0.00 | 0.00 | 71 | |
| 20260506135127 | 7 | 122 | 0.0 | 0.0 | 0.00 | 0.00 | 0.00 | 73 | |
| 20260506134631 | 7 | 122 | 0.0 | 0.0 | 0.00 | 0.00 | 0.00 | ||
| 20260506133634 | 7 | 122 | 0.0 | 0.0 | 0.00 | 0.00 | 0.00 | 76 | |
| 20260506133136 | 7 | 122 | 0.0 | 0.0 | 0.00 | 0.00 | 0.00 | 78 | |
| 20260506132639 | 6 | 122 | 0.0 | 0.0 | 0.00 | 0.00 | 0.00 | 80 | |
| 20260506131641 | 6 | 122 | 0.0 | 4.8 | 0.00 | 0.00 | 0.00 | 82 | |
| 20260506131143 | 6 | 142 | 8.0 | 8.0 | 0.00 | 0.00 | 0.00 | 84 | |
| 20260506130645 | 6 | 149 | 8.0 | 8.0 | 0.00 | 0.00 | 0.00 | 85 | |
| 20260506130147 | 6 | 150 | 9.7 | 9.7 | 0.00 | 0.00 | 0.00 | 87 | |
| 20260506125650 | 6 | 165 | 11.3 | 11.3 | 0.00 | 0.00 | 0.00 | 89 | |
| 20260506125150 | 6 | 173 | 11.3 | 11.3 | 0.00 | 0.00 | 0.00 | 91 | |
| 20260506124651 | 5 | 173 | 11.3 | 11.3 | 0.00 | 0.00 | 0.00 | 92 | |
| 20260506124154 | 5 | 173 | 9.7 | 11.3 | 0.00 | 0.00 | 0.00 | 94 | |
| 20260506123656 | 5 | 170 | 9.7 | 9.7 | 0.00 | 0.00 | 0.00 | 94 | |
| 20260506123337 | 5 | 165 | 9.7 | 9.7 | 0.00 | 0.00 | 0.00 | 96 | |
| 20260506123200 | 5 | 165 | 9.7 | 9.7 | 0.00 | 0.00 | 0.00 | 96 | |
| 20260506122701 | 4 | 169 | 9.7 | 11.3 | 0.00 | 0.00 | 0.00 | 96 | |
| 20260506122200 | 4 | 173 | 9.7 | 9.7 | 0.00 | 0.00 | 0.00 | 95 | |
| 20260506121702 | 4 | 170 | 8.0 | 9.7 | 0.00 | 0.00 | 0.00 | 95 | |
| 20260506120707 | 4 | 197 | 8.0 | 8.0 | 0.00 | 0.00 | 0.00 | 95 | |
| 20260506120209 | 4 | 205 | 8.0 | 8.0 | 0.00 | 0.00 | 0.00 | 95 | |
| 20260506115711 | 4 | 215 | 9.7 | 9.7 | 0.00 | 0.00 | 0.00 | 95 | |
| 20260506115210 | 4 | 195 | 11.3 | 9.7 | 0.00 | 0.00 | 0.00 | 95 | |
| 20260506114713 | 5 | 215 | 11.3 | 9.7 | 0.00 | 0.00 | 0.00 | 95 | |
| 20260506114215 | 5 | 207 | 11.3 | 11.3 | 0.00 | 0.00 | 0.00 | 95 | |
| 20260506113718 | 5 | 210 | 11.3 | 9.7 | 0.00 | 0.00 | 0.00 | 95 | |
| 20260506113220 | 5 | 231 | 9.7 | 9.7 | 0.00 | 0.00 | 0.00 | 95 | |
| 20260506112723 | 5 | 226 | 11.3 | 12.9 | 0.00 | 0.00 | 0.00 | 95 | |
| 20260506112221 | 5 | 214 | 12.9 | 12.9 | 0.00 | 0.00 | 0.00 | 95 | |
| 20260506111801 | 5 | 233 | 9.7 | 8.0 | 0.00 | 0.00 | 0.00 | 95 | |
| 20260506111724 | 5 | 233 | 9.7 | 8.0 | 0.00 | 0.00 | 0.00 | 95 | |
| 20260506111226 | 5 | 232 | 12.9 | 9.7 | 0.00 | 0.00 | 0.00 | 95 | |
| 20260506110728 | 5 | 242 | 11.3 | 9.7 | 0.00 | 0.00 | 0.00 | 95 | |
| 20260506110231 | 5 | 239 | 11.3 | 12.9 | 0.00 | 0.00 | 0.00 | 94 | |
| 20260506105232 | 5 | 221 | 12.9 | 14.5 | 0.00 | 0.00 | 0.00 | 94 | |
| 20260506104735 | 5 | 224 | 12.9 | 9.7 | 0.00 | 0.00 | 0.00 | 94 | |
| 20260506104237 | 5 | 231 | 12.9 | 11.3 | 0.00 | 0.00 | 0.00 | 94 | |
| 20260506103739 | 5 | 212 | 12.9 | 9.7 | 0.00 | 0.00 | 0.00 | 94 | |
| 20260506103242 | 5 | 218 | 11.3 | 14.5 | 0.00 | 0.00 | 0.00 | 94 | |
| 20260506102744 | 5 | 228 | 12.9 | 11.3 | 0.00 | 0.00 | 0.00 | 94 | |
| 20260506102243 | 5 | 236 | 12.9 | 8.0 | 0.00 | 0.00 | 0.00 | 94 | |
| 20260506101745 | 5 | 233 | 12.9 | 16.1 | 0.00 | 0.00 | 0.00 | 94 | |
| 20260506101248 | 5 | 224 | 12.9 | 16.1 | 0.00 | 0.00 | 0.00 | 94 | |
| 20260506100753 | 5 | 233 | 14.5 | 14.5 | 0.00 | 0.00 | 0.00 | 94 | |
| 20260506100252 | 5 | 218 | 14.5 | 11.3 | 0.00 | 0.00 | 0.00 | 94 | |
| 20260506095755 | 5 | 231 | 14.5 | 16.1 | 0.00 | 0.00 | 0.00 | 95 | |
| 20260506095254 | 5 | 225 | 12.9 | 14.5 | 0.00 | 0.00 | 0.00 | 94 | |
| 20260506094757 | 5 | 233 | 14.5 | 14.5 | 0.00 | 0.00 | 0.00 | 95 | |
| 20260506094259 | 5 | 228 | 16.1 | 17.7 | 0.00 | 0.00 | 0.00 | 95 | |
| 20260506093802 | 5 | 238 | 14.5 | 14.5 | 0.00 | 0.00 | 0.00 | 95 | |
| 20260506093303 | 5 | 236 | 14.5 | 12.9 | 0.00 | 0.00 | 0.00 | 95 | |
| 20260506092806 | 5 | 235 | 11.3 | 12.9 | 0.00 | 0.00 | 0.00 | 95 | |
| 20260506092306 | 5 | 242 | 12.9 | 9.7 | 0.00 | 0.00 | 0.00 | 95 | |
| 20260506091807 | 5 | 239 | 16.1 | 14.5 | 0.00 | 0.00 | 0.00 | 95 | |
| 20260506091309 | 5 | 228 | 16.1 | 12.9 | 0.00 | 0.00 | 0.00 | 96 | |
| 20260506090812 | 5 | 242 | 17.7 | 17.7 | 0.00 | 0.00 | 0.00 | 96 | |
| 20260506090314 | 5 | 232 | 19.3 | 17.7 | 0.00 | 0.00 | 0.00 | 96 | |
| 20260506085901 | 5 | 252 | 16.1 | 14.5 | 0.00 | 0.00 | 0.00 | 96 | |
| 20260506085816 | 5 | 252 | 16.1 | 14.5 | 0.00 | 0.00 | 0.00 | 96 | |
| 20260506085316 | 5 | 243 | 17.7 | 14.5 | 0.00 | 0.00 | 0.00 | 96 | |
| 20260506084818 | 6 | 235 | 22.5 | 24.1 | 0.00 | 0.00 | 0.00 | 96 | |
| 20260506084320 | 6 | 245 | 14.5 | 14.5 | 0.00 | 0.00 | 0.00 | 96 | |
| 20260506083823 | 6 | 231 | 17.7 | 24.1 | 0.00 | 0.00 | 0.00 | 96 | |
| 20260506082827 | 6 | 243 | 14.5 | 11.3 | 0.00 | 0.00 | 0.00 | 97 | |
| 20260506082327 | 6 | 239 | 16.1 | 11.3 | 0.00 | 0.00 | 0.00 | 97 | |
| 20260506081829 | 6 | 243 | 19.3 | 14.5 | 0.00 | 0.00 | 0.00 | 97 | |
| 20260506081539 | 6 | 229 | 19.3 | 19.3 | 0.00 | 0.00 | 0.00 | 97 | |
| 20260506081331 | 6 | 229 | 19.3 | 19.3 | 0.00 | 0.00 | 0.00 | 97 | |
| 20260506080834 | 6 | 222 | 20.9 | 14.5 | 0.00 | 0.00 | 0.00 | 97 | |
| 20260506080454 | 5 | 219 | 16.1 | 22.5 | 0.00 | 0.00 | 0.00 | 97 | |
| 20260506080336 | 5 | 219 | 16.1 | 22.5 | 0.00 | 0.00 | 0.00 | 97 | |
| 20260506073347 | 6 | 214 | 16.1 | 17.7 | 0.00 | 0.00 | 0.00 | 95 | |
| 20260506072849 | 6 | 222 | 16.1 | 24.1 | 0.00 | 0.00 | 0.00 | 95 | |
| 20260506072348 | 6 | 255 | 19.3 | 14.5 | 0.00 | 0.00 | 0.00 | 95 | |
| 20260506071851 | 6 | 207 | 16.1 | 14.5 | 0.00 | 0.00 | 0.00 | 94 | |
| 20260506071353 | 6 | 219 | 20.9 | 24.1 | 0.00 | 0.00 | 0.00 | 94 | |
| 20260506070358 | 6 | 228 | 20.9 | 17.7 | 0.00 | 0.00 | 0.00 | 93 | |
| 20260506062410 | 6 | 208 | 17.7 | 11.3 | 0.00 | 0.00 | 0.00 | 89 | |
| 20260506061912 | 6 | 232 | 20.9 | 20.9 | 0.00 | 0.00 | 0.00 | 89 | |
| 20260506061415 | 6 | 238 | 17.7 | 16.1 | 0.00 | 0.00 | 0.00 | 88 | |
| 20260506060917 | 6 | 235 | 16.1 | 11.3 | 0.00 | 0.00 | 0.00 | 87 | |
| 20260506060420 | 6 | 233 | 16.1 | 11.3 | 0.00 | 0.00 | 0.00 | 87 | |
| 20260506051104 | 7 | 221 | 19.3 | 17.7 | 0.00 | 0.00 | 0.00 | 80 | |
| 20260506050939 | 7 | 221 | 19.3 | 17.7 | 0.00 | 0.00 | 0.00 | 80 | |
| 20260506050441 | 7 | 214 | 19.3 | 17.7 | 0.00 | 0.00 | 0.00 | 79 | |
| 20260506044945 | 7 | 224 | 20.9 | 20.9 | 0.00 | 0.00 | 0.00 | 78 | |
| 20260506044448 | 7 | 233 | 17.7 | 16.1 | 0.00 | 0.00 | 0.00 | 77 | |
| 20260506043950 | 7 | 205 | 19.3 | 14.5 | 0.00 | 0.00 | 0.00 | 77 | |
| 20260506043453 | 7 | 212 | 17.7 | 17.7 | 0.00 | 0.00 | 0.00 | 76 | |
| 20260506042955 | 7 | 214 | 17.7 | 17.7 | 0.00 | 0.00 | 0.00 | 75 | |
| 20260506042454 | 7 | 217 | 12.9 | 20.9 | 0.00 | 0.00 | 0.00 | 74 | |
| 20260506041956 | 7 | 229 | 17.7 | 16.1 | 0.00 | 0.00 | 0.00 | 74 | |
| 20260506041458 | 7 | 215 | 17.7 | 14.5 | 0.00 | 0.00 | 0.00 | 72 | |
| 20260506041001 | 7 | 210 | 19.3 | 12.9 | 0.00 | 0.00 | 0.00 | 71 | |
| 20260506040006 | 7 | 222 | 19.3 | 16.1 | 0.00 | 0.00 | 0.00 | 69 | |
| 20260506035505 | 7 | 226 | 17.7 | 14.5 | 0.00 | 0.00 | 0.00 | 68 | |
| 20260506035007 | 7 | 210 | 19.3 | 20.9 | 0.00 | 0.00 | 0.00 | 66 | |
| 20260506034509 | 7 | 225 | 19.3 | 19.3 | 0.00 | 0.00 | 0.00 | 65 | |
| 20260506034012 | 7 | 201 | 16.1 | 16.1 | 0.00 | 0.00 | 0.00 | 64 | |
| 20260506033514 | 8 | 212 | 17.7 | 19.3 | 0.00 | 0.00 | 0.00 | 62 | |
| 20260506033056 | 8 | 224 | 17.7 | 20.9 | 0.00 | 0.00 | 0.00 | ||
| 20260506033018 | 8 | 224 | 17.7 | 20.9 | 0.00 | 0.00 | 0.00 | ||
| 20260506032516 | 8 | 214 | 12.9 | 17.7 | 0.00 | 0.00 | 0.00 | 59 | |
| 20260506031520 | 8 | 218 | 16.1 | 16.1 | 0.00 | 0.00 | 0.00 | 57 | |
| 20260506031023 | 8 | 219 | 12.9 | 16.1 | 0.00 | 0.00 | 0.00 | 56 | |
| 20260506030525 | 8 | 205 | 14.5 | 12.9 | 0.00 | 0.00 | 0.00 | 55 | |
| 20260506030027 | 8 | 219 | 16.1 | 14.5 | 0.00 | 0.00 | 0.00 | 54 | |
| 20260506025526 | 8 | 226 | 16.1 | 14.5 | 0.00 | 0.00 | 0.00 | 53 | |
| 20260506025128 | 13 | 210 | 17.7 | 22.5 | 0.00 | 0.00 | 0.00 | 36 | |
| 20260506025029 | 8 | 240 | 16.1 | 11.3 | 0.00 | 0.00 | 0.00 | 52 | |
| 20260506024531 | 9 | 222 | 12.9 | 19.3 | 0.00 | 0.00 | 0.00 | 51 | |
| 20260506024034 | 9 | 228 | 16.1 | 20.9 | 0.00 | 0.00 | 0.00 | 51 | |
| 20260506023536 | 9 | 229 | 16.1 | 19.3 | 0.00 | 0.00 | 0.00 | 50 | |
| 20260506023038 | 9 | 225 | 16.1 | 22.5 | 0.00 | 0.00 | 0.00 | 50 | |
| 20260506022537 | 9 | 229 | 17.7 | 20.9 | 0.00 | 0.00 | 0.00 | 49 | |
| 20260506022040 | 9 | 225 | 22.5 | 22.5 | 0.00 | 0.00 | 0.00 | 49 | |
| 20260506021542 | 10 | 242 | 16.1 | 9.7 | 0.00 | 0.00 | 0.00 | 49 | |
| 20260506021044 | 10 | 228 | 12.9 | 8.0 | 0.00 | 0.00 | 0.00 | 48 | |
| 20260506020547 | 10 | 218 | 16.1 | 16.1 | 0.00 | 0.00 | 0.00 | 48 | |
| 20260506020049 | 10 | 211 | 11.3 | 17.7 | 0.00 | 0.00 | 0.00 | 47 |